sat.trackr.live / text

‹ back to catalog

GAOFEN-13 02

NORAD 55912 · 2023-036A

PAYLOAD ACTIVE UNKNOWN

§ Identity

Operator
Country
PRC
Launch date
2023-03-17
Launch site
XICLF
Launch vehicle
Mass (kg)
RCS (m²)

Purposes: comms

External: N2YO · Heavens-Above · Gunter

§ Orbital elements

Epoch: 2026-05-25T06:05:23.796960Z

Period
1,436.13 min
Inclination
1.0185°
Eccentricity
0.0004307
Mean motion
1.00269287 rev/d
Perigee alt
35,769.1 km
Apogee alt
35,805.5 km
Semi-major
42,165.4 km
B*
0.0000e+0
RAAN
358.3040°
Arg perigee
339.1099°
Mean anomaly
144.9852°
Rev number
1,186

§ Raw data

GAOFEN-13 021 55912U 23036A   26145.25374765 -.00000223  00000+0  00000+0 0  99992 55912   1.0185 358.3040 0004307 339.1099 144.9852  1.00269287 11864

JSON: /api/v1/satellites/55912 · /tle

For live sub-satellite position, see the globe view (requires WebGL).

§ Visibility from observer

Set your observer location to see the next 7 days of passes ≥ 10°. The values pass through the URL so the page stays shareable.

No JS? Fill the form by hand. The geolocation button needs JavaScript.